Regional Weather Roundup
Issued by NWS

Home | Current Version | Previous Version | Text Only | Print | Product List | Glossary Off
Versions: 1 2 3 4 5 6 7 8 9 10 11 12 13 14 15 16 17 18 19 20 21 22 23 24 25 26 27 28 29 30 31 32 33 34 35 36 37 38 39 40 41 42 43 44 45 46 47 48 49 50

000
ASUS43 KLMK 231302
RWRKY
KENTUCKY REGIONAL WEATHER ROUNDUP
NATIONAL WEATHER SERVICE LOUISVILLE KY
800 AM EST FRI FEB 23 2018

NOTE "FAIR" INDICATES FEW OR NO CLOUDS BELOW 12,000 FEET
WITH NO SIGNIFICANT WEATHER AND/OR OBSTRUCTIONS TO VISIBILITY.

KYZ001>023-026-027-061>063-070>075-231400-
WESTERN AND SOUTH CENTRAL KENTUCKY

CITY           SKY/WX    TMP DP  RH WIND       PRES   REMARKS
PADUCAH        LGT RAIN  59  57  93 SW9       30.23R FOG
HENDERSON      LGT RAIN  61  59  93 SW17      30.20R
OWENSBORO      RAIN      60  59  96 S15       30.22R FOG
HOPKINSVILLE   LGT RAIN  61  61 100 SE5       30.23R FOG
BOWLING GREEN  MOCLDY    60  60 100 SE6       30.26F
GLASGOW        NOT AVBL
$$

KYZ024-025-028>034-038-045-046-053-231400-
NORTH CENTRAL KENTUCKY

CITY           SKY/WX    TMP DP  RH WIND       PRES   REMARKS
LOUISVILLE/SDF LGT RAIN  58  56  93 S7        30.22S
LOUISVILLE/LOU LGT RAIN  57  57 100 S12       30.23R
FORT KNOX      LGT RAIN  60  60 100 S15G24    30.24R
$$

KYZ035>037-039>044-047>052-055>060-089>105-231400-
NORTHEAST KENTUCKY

CITY           SKY/WX    TMP DP  RH WIND       PRES   REMARKS
LEXINGTON      LGT RAIN  60  57  89 S10       30.27F
COVINGTON      CLOUDY    54  54 100 SW10      30.21S FOG
FRANKFORT      LGT RAIN  59  56  89 S12G21    30.23F
$$

KYZ054-064>069-076>088-106>120-231400-
SOUTHEAST KENTUCKY

CITY           SKY/WX    TMP DP  RH WIND       PRES   REMARKS
JACKSON        FAIR      62  57  83 SW7       30.32R
LONDON         MOCLDY    58  57  97 CALM      30.33R
SOMERSET       CLOUDY    63  61  94 S5        30.33S
MIDDLESBORO    FAIR      64  59  81 S6        30.36S
MONTICELLO     NOT AVBL
$$




USA.gov is the U.S. government's official web portal to all federal, state and local government web resources and services.